Simultaneous Nadir Overpasses (SNOs) Predictions

Prediction of SNOs between GOES-16 and NOAA-20 Satellite Orbit:

Table of predicted SNOs for the next 14.0 days since TLE Epoch: 9/25/2021
Index Date Time (GOES-16) GOES-16 Lat,Lon NOAA-20 Lat,Lon Distance(km) Time Diff (sec)
1 09/25/2021 18:23:21 0.11, -75.20 0.31, -74.44 87.04 80
2 09/28/2021 06:23:43 -0.11, -75.20 -0.12, -75.17 2.97 80
3 09/30/2021 18:29:34 0.11, -75.21 -0.06, -75.94 83.61 80
4 10/01/2021 18:09:07 0.12, -75.22 0.99, -71.42 433.45 22
5 10/03/2021 06:32:36 -0.12, -75.22 0.18, -76.69 166.05 80
6 10/04/2021 06:11:11 -0.12, -75.23 -0.80, -72.15 351.24 80
7 10/05/2021 18:35:47 0.12, -75.25 -0.35, -77.46 250.86 80
8 10/06/2021 18:14:22 0.12, -75.26 0.63, -72.92 266.97 80
9 10/08/2021 06:38:49 -0.11, -75.28 0.53, -78.19 331.24 80
